Regional Weather Roundup
Issued by NWS Sioux Falls, SD

Home | Current Version | Previous Version | Graphics & Text | Print | Product List | Glossary Off
Versions: 1 2 3 4 5 6 7 8 9 10 11 12 13 14 15 16 17 18 19 20 21 22 23 24 25 26 27 28 29 30 31 32 33 34 35 36 37 38 39 40 41 42 43 44 45 46 47 48 49 50

000
ASUS43 KFSD 221802
RWRFSD

WEATHER ROUNDUP FOR SE SOUTH DAKOTA/SW MINNESOTA/NW IOWA
NATIONAL WEATHER SERVICE SIOUX FALLS SD
1200 PM CST MON DEC 22 2014

NOTE: "FAIR" INDICATES FEW OR NO CLOUDS BELOW 12,000 FEET WITH NO
SIGNIFICANT WEATHER AND OR OBSTRUCTIONS TO VISIBILITY.


SDZ038>040-050-052>070-221900-
SOUTHEAST SOUTH DAKOTA

CITY           SKY/WX    TMP DP  RH WIND       PRES   REMARKS
CHAMBERLAIN    NOT AVBL
HURON          CLOUDY    33  30  88 NW8       29.42F WCI  26
6HR MIN TEMP:  29; 6HR MAX TEMP:  33;

MADISON        FAIR      34  34 100 SW8       29.41F WCI  27
MITCHELL       CLOUDY    37  35  92 W6        29.43F FOG
6HR MIN TEMP:  34; 6HR MAX TEMP:  37; 6HR PCP: TRACE;

SIOUX FALLS    LGT RAIN  38  37  97 W5        29.42F FOG
6HR MIN TEMP:  38; 6HR MAX TEMP:  41; 6HR PCP:  0.09;

WINNER         LGT RAIN  37  33  85 NW23G30   29.46F
YANKTON        CLOUDY    39  37  93 NW12      29.44F
$$

MNZ071-072-080-081-089-090-097-098-221900-
SOUTHWEST MINNESOTA

CITY           SKY/WX    TMP DP  RH WIND       PRES   REMARKS
FAIRMONT       CLOUDY    37  34  87 SE18      29.52F
JACKSON        CLOUDY    37  36  93 SE14      29.50F FOG
LUVERNE        LGT RAIN  41  37  87 S13       29.44F
MARSHALL       CLOUDY    39  36  87 SE13      29.46F
6HR MIN TEMP:  37; 6HR MAX TEMP:  39;

MONTEVIDEO     DRIZZLE   37  37 100 S16       29.49F
PIPESTONE      DRIZZLE   37  37 100 S12       29.42F
REDWOOD FALLS  LGT RAIN  39  37  92 SE18      29.50F FOG
TRACY          DRIZZLE   39  38  95 S13       29.46F
WINDOM         RAIN      39  37  93 SE16      29.49F
WORTHINGTON    CLOUDY    37 -11  12 S16G22    29.46F
$$

IAZ001>003-012>014-020>022-031-032-NEZ013-014-SDZ071-221900-
NORTHWEST IOWA

CITY           SKY/WX    TMP DP  RH WIND       PRES   REMARKS
DENISON        CLOUDY    41  41 100 SE13      29.46F
ESTHERVILLE    CLOUDY    37  37 100 SE20      29.50F FOG
SIOUX CITY     CLOUDY    42  41  96 S10       29.45F FOG
6HR MIN TEMP:  42; 6HR MAX TEMP:  43; 6HR PCP:  0.13;

SPENCER        CLOUDY    40  37  89 SE17      29.48F
6HR MIN TEMP:  39; 6HR MAX TEMP:  40; 6HR PCP:  0.09;

$$

ABBREVIATIONS USED IN REMARKS
   TC - TEMPERATURE IN CELSIUS
  WCI - WIND CHILL INDEX
   HX - HEAT INDEX
  VSB - VISIBILITY



USA.gov is the U.S. government's official web portal to all federal, state and local government web resources and services.